Home   Weather   Woodbridge Run   Past weeks
Flag for USA

Past Weather in Woodbridge Run, North Carolina, USA — Yesterday and Last 2 Weeks

Now
65 °F

Rain. Mostly cloudy.


Feels Like: 65 °F
Forecast: 75 / 64 °F
Wind: 5 mph from Northeast

Location: Davidson County Airport

Current Time: Jul 23, 2019 at 4:35:32 pm

Latest Report: Jul 23, 2019 at 3:15 pm


Visibility: 10 mi

Pressure: 29.90 "Hg

Humidity: 100%

Dew Point: 65 °F

Location of Woodbridge RunLocation

Past Weather in Woodbridge Run — Graph

°F

Woodbridge Run Temperature Yesterday

Maximum temperature yesterday: 89 °F (at 3:35 pm)
Minimum temperature yesterday: 71 °F (at 10:15 pm)
Average temperature yesterday: 79 °F

High & Low Weather Summary for the Past Weeks

 TemperatureHumidityPressure
High94 °F (Jul 17, 3:35 pm)100% (Jul 9, 1:15 am)30.15 "Hg (Jul 9, 1:15 am)
Low64 °F (Jul 23, 2:15 pm)40% (Jul 14, 4:35 pm)29.84 "Hg (Jul 23, 12:15 pm)
Average79 °F84%30.02 "Hg
* Reported Jul 8 3:15 pm — Jul 23 3:15 pm, Woodbridge Run. Weather by CustomWeather, © 2019

Note: Actual official high and low records may vary slightly from our data, if they occured in-between our weather recording intervals... More about our weather records

Advertising

Woodbridge Run Weather History for the Previous 24 Hours

Scroll right to see more
 ConditionsComfort  
Time TempWeatherWind HumidityBarometerVisibility
3:15 pm
Tue, Jul 23
65 °FRain. Mostly cloudy.5 mph100%29.90 "Hg10 mi
2:55 pm65 °FLight rain. Cloudy.3 mph100%29.90 "Hg10 mi
2:35 pm64 °FLight rain. Broken clouds.7 mph100%29.89 "Hg7 mi
2:15 pm64 °FRain. Cloudy.8 mph100%29.90 "Hg2 mi
1:55 pm65 °FRain. More clouds than sun.6 mph100%29.90 "Hg10 mi
1:35 pm65 °FRain. Mostly cloudy.8 mph100%29.89 "Hg2 mi
1:15 pm66 °FMostly cloudy.7 mph100%29.89 "Hg10 mi
12:55 pm67 °FRain. Broken clouds.10 mph100%29.87 "Hg7 mi
12:35 pm70 °FRain. Low clouds.5 mph100%29.87 "Hg0 mi
12:15 pm75 °FRain. Cloudy.3 mph100%29.84 "Hg3 mi
11:55 am77 °FCloudy.3 mph98%29.85 "Hg10 mi
11:35 am76 °FMore clouds than sun.No wind99%29.87 "Hg10 mi
11:15 am76 °FCloudy.No wind100%29.87 "Hg10 mi
10:55 am76 °FDrizzle. Broken clouds.3 mph100%29.88 "Hg10 mi
10:35 am75 °FDrizzle. Mostly cloudy.No wind100%29.89 "Hg10 mi
10:15 am74 °FMore clouds than sun.6 mph100%29.89 "Hg10 mi
9:55 am74 °FOvercast.6 mph100%29.90 "Hg10 mi
9:35 am74 °FMore clouds than sun.3 mph100%29.90 "Hg10 mi
8:55 am73 °FPartly sunny.3 mph100%29.91 "Hg10 mi
8:35 am73 °FScattered clouds.No wind100%29.91 "Hg10 mi
7:55 am72 °FScattered clouds.3 mph100%29.90 "Hg10 mi
7:35 am71 °FScattered clouds.No wind100%29.90 "Hg10 mi
7:15 am71 °FScattered clouds.No wind100%29.90 "Hg10 mi
6:55 am70 °FScattered clouds.No wind100%29.90 "Hg10 mi
6:35 am70 °FBroken clouds.No wind100%29.90 "Hg10 mi
6:15 am70 °FMostly cloudy.No wind100%29.90 "Hg10 mi
5:55 am70 °FOvercast.No wind100%29.91 "Hg10 mi
5:35 am70 °FMostly cloudy.3 mph100%29.90 "Hg10 mi
5:15 am70 °FMostly cloudy.No wind100%29.90 "Hg10 mi
4:55 am70 °FPartly cloudy.No wind100%29.89 "Hg10 mi
4:35 am69 °FPassing clouds.No wind100%29.90 "Hg10 mi
4:15 am70 °FLight rain. Partly cloudy.5 mph100%29.91 "Hg10 mi
3:55 am70 °FLight rain. Overcast.6 mph100%29.92 "Hg5 mi
3:35 am71 °FRain. Partly cloudy.No wind100%29.92 "Hg5 mi
3:15 am71 °FLight rain. Partly cloudy.No wind100%29.91 "Hg10 mi
2:55 am71 °FLight rain. Passing clouds.No wind100%29.90 "Hg10 mi
2:35 am71 °FLight rain. Partly cloudy.No wind100%29.92 "Hg10 mi
1:55 am72 °FLight rain. Overcast.7 mph100%29.93 "Hg7 mi
1:35 am72 °FRain. Partly cloudy.8 mph100%29.95 "Hg10 mi
1:15 am73 °FPassing clouds.5 mph100%29.94 "Hg10 mi
12:55 am72 °FPassing clouds.No wind100%29.93 "Hg10 mi
12:35 am72 °FClear.No wind100%29.93 "Hg10 mi
12:15 am73 °FPartly cloudy.No wind100%29.94 "Hg10 mi
11:55 pm
Mon, Jul 22
73 °FLight rain. Overcast.No wind100%29.94 "Hg10 mi
11:15 pm71 °FPassing clouds.No wind100%29.93 "Hg10 mi
10:55 pm71 °FPassing clouds.No wind100%29.94 "Hg10 mi
10:35 pm71 °FPassing clouds.No wind100%29.94 "Hg10 mi
10:15 pm71 °FPassing clouds.No wind100%29.93 "Hg10 mi
9:55 pm72 °FPassing clouds.No wind100%29.93 "Hg10 mi
9:35 pm72 °FPassing clouds.No wind100%29.93 "Hg10 mi
9:15 pm71 °FPassing clouds.No wind100%29.93 "Hg10 mi
8:55 pm72 °FPassing clouds.No wind100%29.93 "Hg10 mi
8:15 pm74 °FLight rain. Broken clouds.No wind90%29.94 "Hg10 mi
7:55 pm74 °FScattered clouds.No wind89%29.94 "Hg10 mi
7:35 pm74 °FBroken clouds.5 mph87%29.94 "Hg10 mi
7:15 pm78 °FBroken clouds.9 mph77%29.94 "Hg10 mi
6:55 pm85 °FScattered clouds.8 mph64%29.91 "Hg10 mi
6:35 pm85 °FSunny.7 mph65%29.90 "Hg10 mi
6:15 pm85 °FScattered clouds.9 mph61%29.90 "Hg10 mi
5:55 pm86 °FSunny.9 mph59%29.91 "Hg10 mi
5:35 pm86 °FSunny.9 mph60%29.90 "Hg10 mi
5:15 pm87 °FSunny.9 mph60%29.90 "Hg10 mi
4:55 pm87 °FSunny.9 mph61%29.91 "Hg10 mi
4:35 pm88 °FSunny.12 mph58%29.90 "Hg10 mi
4:15 pm89 °FSunny.14 mph56%29.90 "Hg10 mi
Weather by CustomWeather, © 2019

See weather overview